User: anonymous   Login
Location: Deer Lodge Site
(39.6809°N, 119.9392°W)
Time: 03:34:01
(UTC-07:00)
Language:

CZ-4C R/B - Orbit

View from above orbital plane
View from above orbital plane
View from above satellite
View from above satellite

Ground track
Ground track

The orbit data is extracted from the following two-line orbital elements,

1 36416U 10009D   15244.51293339 -.00000061  00000-0  27843-4 0  9997
2 36416  63.4439 218.5794 0322731 358.4456   1.5550 13.69473320274715
Epoch (UTC): 01 September 2015 12:18:37
Eccentricity: 0.0322731
inclination: 63.4439°
perigee height: 763 km
apogee height: 1239 km
right ascension of ascending node: 218.5794°
argument of perigee: 358.4456°
revolutions per day: 13.69473320
mean anomaly at epoch: 1.5550°
orbit number at epoch: 27471

The dashed part of the orbit path shows where the satellite is in the earth's shadow,  

DLR